Date String (YYYY-MM-DD hh:mm:ss) UTC,Instrument flags,Ambient pressure (hPa),Sample flow (lpm),Bypass flow (lpm),Sample temperature (°C),Ambient temperature (°C),ASC tube jacket temperature (°C),LED temperature (°C),Box temperature (°C),Sample RH (%),Span deviation,Mass concentration (μg/m³),Mass concentration (μg/m³),Mass concentration (μg/m³)
DateTimeUTC,F1_M11,P_M11,Q1_M11,Q2_M11,T1_M11,T2_M11,T3_M11,T4_M11,T5_M11,U1_M11,ZSPAN_M11,X0_M11,X2_M11,X1_M11
2022-04-01 16:00:00,,0821.7,5.00,0.00,24.3,23.6,00.0,33.3,26.1,13.9,0000.0,0011.67,0004.15,0003.33
2022-04-01 16:01:00,,0821.7,5.01,0.00,24.3,23.5,00.0,33.3,26.1,14.4,0000.0,0012.59,0004.20,0003.36
2022-04-01 16:02:00,,0821.7,4.98,0.00,24.3,23.5,00.0,33.3,26.1,14.6,0000.0,0012.99,0004.24,0003.39
2022-04-01 16:03:00,,0821.7,5.01,0.00,24.3,23.6,00.0,33.3,26.1,14.3,0000.0,0012.26,0004.28,0003.40
2022-04-01 16:04:00,,0821.6,4.99,0.00,24.3,23.6,00.0,33.3,26.1,14.8,0000.0,0012.98,0004.30,0003.42
2022-04-01 16:05:00,,0821.7,4.99,0.00,24.2,23.5,00.0,33.3,26.0,14.2,0000.0,0012.43,0004.32,0003.43
2022-04-01 16:06:00,,0821.7,5.00,0.00,24.2,23.5,00.0,33.3,26.0,14.3,0000.0,0012.12,0004.27,0003.44
2022-04-01 16:07:00,,0821.7,5.00,0.00,24.2,23.4,00.0,33.3,25.9,14.5,0000.0,0012.45,0004.27,0003.44
2022-04-01 16:08:00,,0821.7,5.00,0.00,24.2,23.4,00.0,33.3,25.9,14.6,0000.0,0012.92,0004.28,0003.45
2022-04-01 16:09:00,,0821.7,5.00,0.00,24.1,23.4,00.0,33.2,25.9,14.1,0000.0,0013.64,0004.32,0003.47
2022-04-01 16:10:00,,0821.7,5.00,0.00,24.1,23.3,00.0,33.2,25.9,14.4,0000.0,0012.96,0004.32,0003.49
2022-04-01 16:11:00,,0821.7,4.98,0.00,24.1,23.3,00.0,33.2,25.9,14.3,0000.0,0012.18,0004.34,0003.51
2022-04-01 16:12:00,,0821.7,5.00,0.00,24.1,23.3,00.0,33.2,25.8,14.2,0000.0,0011.56,0004.35,0003.50
2022-04-01 16:13:00,,0821.7,5.00,0.00,24.1,23.3,00.0,33.2,25.8,14.4,0000.0,0011.86,0004.38,0003.49
2022-04-01 16:14:00,,0821.7,5.01,0.00,24.1,23.4,00.0,33.2,25.8,14.5,0000.0,0013.36,0004.47,0003.51
2022-04-01 16:15:00,,0821.7,5.00,0.00,24.1,23.4,00.0,33.2,25.9,14.6,0000.0,0013.18,0004.52,0003.52
2022-04-01 16:16:00,,0821.7,5.00,0.00,24.1,23.3,00.0,33.2,25.8,14.6,0000.0,0013.25,0004.57,0003.54
2022-04-01 16:17:00,,0821.8,5.00,0.00,24.1,23.3,00.0,33.2,25.8,14.5,0000.0,0013.64,0004.63,0003.55
2022-04-01 16:18:00,,0821.8,4.98,0.00,24.1,23.3,00.0,33.2,25.8,14.5,0000.0,0014.26,0004.66,0003.57
2022-04-01 16:19:00,,0821.9,5.01,0.00,24.0,23.3,00.0,33.1,25.7,14.4,0000.0,0014.22,0004.67,0003.57
2022-04-01 16:20:00,,0821.9,5.00,0.00,24.0,23.2,00.0,33.1,25.7,14.2,0000.0,0014.41,0004.66,0003.58
2022-04-01 16:21:00,,0821.8,5.00,0.00,24.0,23.2,00.0,33.1,25.7,14.3,0000.0,0014.54,0004.65,0003.57
2022-04-01 16:22:00,,0821.8,5.01,0.00,24.0,23.1,00.0,33.1,25.7,14.3,0000.0,0014.47,0004.63,0003.58
2022-04-01 16:23:00,,0821.8,4.99,0.00,24.0,23.2,00.0,33.1,25.7,13.9,0000.0,0014.16,0004.61,0003.58
2022-04-01 16:24:00,,0821.8,5.00,0.00,24.0,23.2,00.0,33.1,25.7,14.0,0000.0,0013.58,0004.58,0003.58
2022-04-01 16:25:00,,0821.7,5.00,0.00,24.0,23.2,00.0,33.1,25.7,13.9,0000.0,0012.72,0004.48,0003.57
2022-04-01 16:26:00,,0821.9,5.01,0.00,24.0,23.2,00.0,33.1,25.7,14.1,0000.0,0012.88,0004.42,0003.56
2022-04-01 16:27:00,,0822.0,4.98,0.00,24.0,23.2,00.0,33.1,25.6,14.2,0000.0,0013.04,0004.38,0003.55
2022-04-01 16:28:00,,0821.8,5.00,0.00,24.0,23.1,00.0,33.1,25.7,14.1,0000.0,0014.03,0004.34,0003.55
2022-04-01 16:29:00,,0821.8,5.00,0.00,23.9,23.1,00.0,33.1,25.7,14.0,0000.0,0014.36,0004.31,0003.55
2022-04-01 16:30:00,,0822.1,5.01,0.00,23.9,23.0,00.0,33.0,25.7,14.0,0000.0,0014.08,0004.33,0003.54
2022-04-01 16:31:00,,0821.9,5.01,0.00,23.9,23.0,00.0,33.0,25.6,14.2,0000.0,0013.72,0004.32,0003.53
2022-04-01 16:32:00,,0821.9,5.00,0.00,23.9,23.0,00.0,33.0,25.7,14.4,0000.0,0013.42,0004.28,0003.52
2022-04-01 16:33:00,,0822.0,4.98,0.00,23.9,23.0,00.0,33.0,25.6,14.4,0000.0,0013.13,0004.27,0003.52
2022-04-01 16:34:00,,0822.0,5.01,0.00,23.9,23.0,00.0,33.0,25.6,14.1,0000.0,0013.12,0004.27,0003.52
2022-04-01 16:35:00,,0821.8,4.99,0.00,23.9,23.1,00.0,33.0,25.7,14.1,0000.0,0012.97,0004.22,0003.52
2022-04-01 16:36:00,,0821.8,5.00,0.00,23.9,23.1,00.0,33.0,25.7,14.2,0000.0,0012.19,0004.19,0003.51
2022-04-01 16:37:00,,0821.9,5.00,0.00,23.9,23.2,00.0,33.0,25.6,14.5,0000.0,0012.01,0004.19,0003.50
2022-04-01 16:38:00,,0821.8,5.00,0.00,23.9,23.1,00.0,33.0,25.6,14.4,0000.0,0011.90,0004.21,0003.50
2022-04-01 16:39:00,,0822.0,5.01,0.00,23.9,23.1,00.0,33.0,25.6,14.2,0000.0,0010.68,0004.21,0003.51
2022-04-01 16:40:00,,0822.0,5.00,0.00,23.9,23.1,00.0,33.0,25.6,14.3,0000.0,0009.33,0004.23,0003.51
2022-04-01 16:41:00,,0821.8,4.99,0.00,23.9,23.0,00.0,33.0,25.6,13.8,0000.0,0009.08,0004.20,0003.51
2022-04-01 16:42:00,,0821.9,5.01,0.00,23.9,23.0,00.0,33.0,25.5,13.6,0000.0,0009.24,0004.16,0003.51
2022-04-01 16:43:00,,0821.9,4.99,0.00,23.9,22.9,00.0,33.0,25.5,13.7,0000.0,0009.92,0004.19,0003.52
2022-04-01 16:44:00,,0822.0,5.00,0.00,23.9,22.9,00.0,33.0,25.6,13.3,0000.0,0009.85,0004.19,0003.53
2022-04-01 16:45:00,,0822.0,5.01,0.00,23.9,22.9,00.0,32.9,25.6,13.7,0000.0,0009.84,0004.17,0003.53
2022-04-01 16:46:00,,0822.1,5.00,0.00,23.9,23.0,00.0,32.9,25.6,13.7,0000.0,0009.85,0004.17,0003.54
2022-04-01 16:47:00,,0822.1,4.99,0.00,23.9,23.0,00.0,32.9,25.6,14.0,0000.0,0009.85,0004.15,0003.55
2022-04-01 16:48:00,,0822.1,5.00,0.00,23.9,23.1,00.0,32.9,25.7,14.2,0000.0,0009.74,0004.15,0003.55
2022-04-01 16:49:00,,0822.1,5.01,0.00,23.9,23.1,00.0,32.9,25.7,13.6,0000.0,0010.42,0004.12,0003.55
2022-04-01 16:50:00,,0822.1,5.01,0.00,23.9,23.1,00.0,32.9,25.7,13.5,0000.0,0010.29,0004.13,0003.55
2022-04-01 16:51:00,,0822.0,4.99,0.00,23.9,23.2,00.0,32.9,25.7,13.7,0000.0,0010.89,0004.13,0003.55
2022-04-01 16:52:00,,0822.0,5.00,0.00,23.9,23.2,00.0,32.9,25.7,14.0,0000.0,0010.78,0004.11,0003.56
2022-04-01 16:53:00,,0822.0,5.01,0.00,23.9,23.2,00.0,32.9,25.7,14.0,0000.0,0011.06,0004.13,0003.55
2022-04-01 16:54:00,,0822.0,5.00,0.00,23.9,23.3,00.0,32.9,25.7,14.1,0000.0,0009.98,0004.17,0003.56
2022-04-01 16:55:00,,0822.0,5.00,0.00,23.9,23.3,00.0,32.9,25.7,14.0,0000.0,0010.09,0004.20,0003.55
2022-04-01 16:56:00,,0822.0,5.00,0.00,24.0,23.3,00.0,32.9,25.8,14.0,0000.0,0010.67,0004.23,0003.55
2022-04-01 16:57:00,,0821.9,5.01,0.00,24.0,23.3,00.0,32.9,25.7,13.8,0000.0,0011.84,0004.26,0003.56
2022-04-01 16:58:00,,0821.9,4.99,0.00,24.0,23.4,00.0,32.9,25.7,13.6,0000.0,0012.56,0004.33,0003.58
2022-04-01 16:59:00,,0821.9,5.00,0.00,24.0,23.4,00.0,33.0,25.8,13.8,0000.0,0013.29,0004.37,0003.59
